Orbital Elements at Epoch 2459200.5 (2020-Dec-17.0) TDB
Reference: JPL 25 (heliocentric ecliptic J2000)
Element | Value | Uncertainty (1-sigma) | Units |
e | .06397143128316506 | 4.9873e-08 | |
a | 3.036515913840328 | 1.816e-08 | au |
q | 2.842265644717854 | 1.5199e-07 | au |
i | 9.421991971595316 | 5.6726e-06 | deg |
node | 199.3288363118967 | 2.3824e-05 | deg |
peri | 165.2280318724478 | 4.0962e-05 | deg |
M | 300.2242648346959 | 3.5529e-05 | deg |
tp | 2459521.410697510269 (2021-Nov-02.91069751) | 0.00019215 | TDB |
period | 1932.688084625234 5.29 | 1.7337e-05 4.747e-08 | d yr |
n | .1862690637272736 | 1.6709e-09 | deg/d |
Q | 3.230766182962801 | 1.9321e-08 | au |
|
| | Orbit Determination Parameters
Additional Information
|